Location: Unspecified
(41.1637°N, 24.2901°E)
Time: 19:27:30
(UTC+01:00)

ARIANE 6 FM1 Upper Stage - Pass Details

Date: 23 January 2026
Orbit: 522 x 609 km, 62.0° (Epoch: 11 February)

Event Time Altitude Azimuth Distance (km) Brightness Sun altitude
Rises 16:53:59 0° 185° (S) 2,723 6.6 -5.3°
Reaches altitude 10° 16:56:31 10° 172° (S) 1,817 5.4 -5.7°
Maximum altitude 16:59:50 24° 117° (ESE) 1,146 3.9 -6.3°
Drops below altitude 10° 17:03:05 10° 63° (ENE) 1,791 4.6 -6.9°
Enters shadow 17:03:27 - 60° (ENE) 1,914 4.7 -7.0°
